Погода в Чадане

Россия / Республика Тыва     51°16′58″N   91°34′02″E
темп.,
°C
ветер,
м/с
пор.,
м/с
влажн.,
%
обл.,
%
осадки,
мм/ч
давл.,
гПа
погр.,
м
13 мая, чт
чт1301:00+9зсз2254100 0.0 101024
04:00+8зсз1162100 0.0 101011
07:00+9зсз1263100 0.0 1012161
10:00+12зсз334140 0.0 10111204
13:00+14ссв222661 0.0 10102235
16:00+16юв122070 0.0 10102798
19:00+16в332492 0.0 1009631
22:00+11ююв223088 0.0 101117
14 мая, пт
пт1401:00+9ю2235100 0.0 101212
04:00+8юв2239100 0.0 101312
07:00+9юв11405 0.0 1014119
10:00+13ссз21310 0.0 1012768
13:00+17сз34255 0.0 10111597
16:00+18с762821 0.0 10092441
19:00+11ю666691 0.8 1014264
22:00+10ссз016798 0.3 101715
15 мая, сб
сб1501:00+7с11794 0.4 102111
04:00+6ю2280100 0.0 102216
07:00+9ююз1267100 0.0 1023141
10:00+12зсз3442100 0.0 10231255
13:00+15зсз343252 0.0 10211773
16:00+17ююв132878 0.0 10192008
19:00+17вюв32329 0.0 1019600
22:00+12ююв334342 0.0 102121
16 мая, вс
вс1601:00+10ююв22485 0.0 102016
04:00+9ююв11525 0.0 102010
07:00+11ююз11485 0.0 1020106
10:00+15сз223914 0.0 1018633
13:00+20сз332860 0.0 10151360
16:00+22ссз3326100 0.0 10121772
19:00+20ссз683556 0.0 1012575
22:00+14ю33555 0.2 101335
17 мая, пн
пн1701:00+12ю22615 0.4 101319
04:00+11ююз116396 0.0 101210
07:00+13ю1259100 0.0 101383
10:00+16ссз234992 0.0 1014932
13:00+20з243397 0.0 10122613
16:00+22ссз572713 0.0 10112837
19:00+20ссз683145 0.0 1011967
22:00+15з22488 0.0 101311